EW1036 Weather Reports


Display with metric or nautical units.
time (UTC)temp
F
wind
direction
speed
MPH
gust
MPH
rain 1hr
in
rain 24hr
in
rain mn
in
humidity
%
barometer
mb
20260905022532 81 0 0.0 4.0 0.00 0.00 0.00 86 1016.4
20260905022032 81 0 0.0 0.0 0.00 0.00 0.00 89 1016.4
20260905021558 81 0 0.0 0.0 0.00 0.00 0.00 90 1016.3
20260905021032 81 0 0.0 0.0 0.00 0.00 0.00 91 1016.2
20260905020536 81 0 0.0 0.0 0.00 0.00 0.00 92 1016.3
20260905020057 81 0 0.0 0.0 0.00 0.00 0.00 91 1015.7
20260905015532 81 0 0.0 0.0 0.00 0.00 0.00 91 1015.4
20260905015032 81 0 0.0 0.0 0.00 0.00 0.00 90 1015.3
20260905014553 81 0 0.0 0.0 0.00 0.00 0.00 90 1015.2
20260905014032 81 0 0.0 0.0 0.00 0.00 0.00 90 1015.3
20260905013532 81 0 0.0 0.0 0.00 0.00 0.00 90 1015.3
20260905013045 81 0 0.0 0.0 0.00 0.00 0.00 90 1015.4
20260905012533 81 0 0.0 1.0 0.00 0.00 0.00 90 1015.2
20260905012034 82 0 0.0 1.0 0.00 0.00 0.00 89 1014.9
20260905011556 82 0 0.0 0.0 0.00 0.00 0.00 89 1014.3
20260905011032 82 0 0.0 0.0 0.00 0.00 0.00 89 1014.0
20260905010533 82 0 0.0 0.0 0.00 0.00 0.00 88 1014.0
20260905010106 82 0 0.0 0.0 0.00 0.00 0.00 88 1013.9
20260905005536 82 0 0.0 0.0 0.00 0.00 0.00 88 1013.9
20260905005033 81 0 0.0 0.0 0.00 0.00 0.00 88 1013.8
20260905004551 81 0 0.0 0.0 0.00 0.00 0.00 88 1013.8
20260905004035 82 0 0.0 0.0 0.00 0.00 0.00 88 1013.7
20260905003533 82 0 0.0 0.0 0.00 0.00 0.00 87 1013.8
20260905003047 82 0 0.0 0.0 0.00 0.00 0.00 87 1013.9
20260905002536 82 0 0.0 0.0 0.00 0.00 0.00 86 1013.9
20260905002034 82 0 0.0 0.0 0.00 0.00 0.00 87 1013.8
20260905001551 82 0 0.0 0.0 0.00 0.00 0.00 86 1013.7
20260905001032 82 0 0.0 0.0 0.00 0.00 0.00 86 1013.7
20260905000533 82 0 0.0 0.0 0.00 0.00 0.00 85 1013.6
20260905000105 82 0 0.0 0.0 0.00 0.00 0.00 85 1013.6
20260904235532 82 0 0.0 0.0 0.00 0.00 0.00 85 1013.6
20260904235032 83 0 0.0 0.0 0.00 0.00 0.00 84 1013.5
20260904234551 82 0 0.0 1.0 0.00 0.00 0.00 84 1013.5
20260904234033 83 0 0.0 1.0 0.00 0.00 0.00 83 1013.4
20260904233533 83 0 0.0 3.0 0.00 0.00 0.00 84 1013.4
20260904233056 83 0 0.0 3.0 0.00 0.00 0.00 83 1013.3
20260904232533 83 0 0.0 0.0 0.00 0.00 0.00 83 1013.3
20260904232036 84 0 0.0 0.0 0.00 0.00 0.00 84 1013.4
20260904231554 84 0 0.0 0.0 0.00 0.00 0.00 84 1013.4
20260904231032 84 0 0.0 0.0 0.00 0.00 0.00 84 1013.3
20260904230532 84 0 0.0 0.0 0.00 0.00 0.00 84 1013.2
20260904230107 84 0 0.0 0.0 0.00 0.00 0.00 84 1013.2
20260904225533 84 0 0.0 0.0 0.00 0.00 0.00 84 1013.2
20260904225037 84 0 0.0 0.0 0.00 0.00 0.00 83 1013.0
20260904224550 85 0 0.0 0.0 0.00 0.00 0.00 83 1013.0
20260904224035 85 0 0.0 0.0 0.00 0.00 0.00 82 1013.2
20260904223533 85 0 0.0 1.0 0.00 0.00 0.00 83 1013.1
20260904223057 85 0 0.0 1.0 0.00 0.00 0.00 82 1013.2
20260904222532 86 0 0.0 0.0 0.00 0.00 0.00 82 1013.2
20260904222032 86 0 0.0 0.0 0.00 0.00 0.00 82 1013.2
20260904221547 86 0 0.0 0.0 0.00 0.00 0.00 82 1013.2
20260904221033 86 0 0.0 0.0 0.00 0.00 0.00 82 1013.3
20260904220530 86 0 0.0 1.0 0.00 0.00 0.00 84 1013.2
20260904220116 86 0 0.0 1.0 0.00 0.00 0.00 84 1013.1
20260904215532 86 0 0.0 1.0 0.00 0.00 0.00 84 1013.0
20260904215032 86 0 0.0 0.0 0.00 0.00 0.00 84 1013.0
20260904214553 86 0 0.0 0.0 0.00 0.00 0.00 85 1013.0
20260904214032 86 0 0.0 0.0 0.00 0.00 0.00 85 1012.9
20260904213534 86 0 0.0 0.0 0.00 0.00 0.00 84 1013.0
20260904213045 86 0 0.0 0.0 0.00 0.00 0.00 84 1013.2
20260904212536 86 0 0.0 0.0 0.00 0.00 0.00 84 1013.2
20260904212032 87 0 0.0 0.0 0.00 0.00 0.00 83 1013.1
20260904211556 87 0 0.0 0.0 0.00 0.00 0.00 85 1012.9
20260904211033 87 0 0.0 0.0 0.00 0.00 0.00 83 1012.8
20260904210533 87 0 0.0 0.0 0.00 0.00 0.00 84 1012.7
20260904210051 87 0 0.0 0.0 0.00 0.00 0.00 83 1012.7
20260904205532 87 0 0.0 1.0 0.00 0.00 0.00 84 1012.7
20260904205032 87 0 0.0 1.0 0.00 0.00 0.00 84 1012.5
20260904204550 87 0 0.0 0.0 0.00 0.00 0.00 82 1012.7
20260904204033 87 0 0.0 0.0 0.00 0.00 0.00 84 1012.8
20260904203533 87 0 0.0 0.0 0.00 0.00 0.00 83 1012.9
20260904203056 88 0 0.0 0.0 0.00 0.00 0.00 82 1013.0
20260904202533 88 0 0.0 0.0 0.00 0.00 0.00 82 1013.2
20260904202029 88 0 0.0 0.0 0.00 0.00 0.00 82 1013.2
20260904201558 88 0 0.0 0.0 0.00 0.00 0.00 82 1013.2
20260904201032 88 0 0.0 1.0 0.00 0.00 0.00 80 1013.3
20260904200535 88 0 0.0 1.0 0.00 0.00 0.00 81 1013.4
20260904200059 88 0 0.0 0.0 0.00 0.00 0.00 79 1013.5
20260904195532 87 0 0.0 0.0 0.00 0.00 0.00 79 1013.6
20260904195032 87 0 0.0 0.0 0.00 0.00 0.00 81 1013.8
20260904194559 88 0 0.0 0.0 0.00 0.00 0.00 81 1013.9
20260904194034 88 0 0.0 0.0 0.00 0.00 0.00 79 1014.0
20260904193536 88 0 0.0 0.0 0.00 0.00 0.00 80 1014.0
20260904193056 88 0 0.0 0.0 0.00 0.00 0.00 80 1014.1
20260904192535 88 0 0.0 0.0 0.00 0.00 0.00 81 1014.2
20260904192032 88 0 0.0 0.0 0.00 0.00 0.00 79 1014.3
20260904191552 88 0 0.0 0.0 0.00 0.00 0.00 81 1014.4
20260904191033 89 0 0.0 0.0 0.00 0.00 0.00 81 1014.4
20260904190532 88 0 0.0 0.0 0.00 0.00 0.00 79 1014.5
20260904190048 88 0 0.0 0.0 0.00 0.00 0.00 77 1014.5
20260904185532 89 0 0.0 0.0 0.00 0.00 0.00 81 1014.6
20260904185032 89 0 0.0 0.0 0.00 0.00 0.00 81 1014.6
20260904184610 89 0 0.0 0.0 0.00 0.00 0.00 80 1014.7
20260904184033 89 0 0.0 0.0 0.00 0.00 0.00 80 1014.8
20260904183533 89 0 0.0 0.0 0.00 0.00 0.00 78 1014.9
20260904183052 89 0 0.0 0.0 0.00 0.00 0.00 82 1014.8
20260904182532 89 0 0.0 0.0 0.00 0.00 0.00 81 1014.9
20260904182032 89 0 0.0 0.0 0.00 0.00 0.00 81 1015.0
20260904181551 89 0 0.0 0.0 0.00 0.00 0.00 80 1015.1
20260904181032 89 0 0.0 0.0 0.00 0.00 0.00 80 1015.2
20260904180532 89 0 0.0 0.0 0.00 0.00 0.00 80 1015.3
20260904175532 89 0 0.0 0.0 0.00 0.00 0.00 79 1015.4
20260904175032 90 0 0.0 0.0 0.00 0.00 0.00 80 1015.4
20260904174614 90 0 0.0 0.0 0.00 0.00 0.00 77 1015.5
20260904174032 90 0 0.0 0.0 0.00 0.00 0.00 76 1015.5
20260904173532 90 0 0.0 0.0 0.00 0.00 0.00 79 1015.5
20260904173052 90 0 0.0 0.0 0.00 0.00 0.00 77 1015.4
20260904172533 91 0 0.0 0.0 0.00 0.00 0.00 77 1015.5
20260904172031 90 0 0.0 0.0 0.00 0.00 0.00 73 1015.5
20260904171602 91 0 0.0 0.0 0.00 0.00 0.00 76 1015.5
20260904171035 91 0 0.0 0.0 0.00 0.00 0.00 76 1015.6
20260904170532 91 0 0.0 0.0 0.00 0.00 0.00 76 1015.6
20260904170053 90 0 0.0 0.0 0.00 0.00 0.00 78 1015.7
20260904165535 91 0 0.0 0.0 0.00 0.00 0.00 75 1015.8
20260904165035 91 0 0.0 0.0 0.00 0.00 0.00 76 1016.0
20260904164553 91 0 0.0 0.0 0.00 0.00 0.00 74 1016.0
20260904164035 91 0 0.0 0.0 0.00 0.00 0.00 75 1016.1
20260904163535 90 0 0.0 0.0 0.00 0.00 0.00 77 1016.0
20260904163103 90 0 0.0 0.0 0.00 0.00 0.00 78 1016.0
20260904162535 91 0 0.0 0.0 0.00 0.00 0.00 77 1016.1
20260904162035 91 0 0.0 0.0 0.00 0.00 0.00 79 1016.2
20260904161607 90 0 0.0 0.0 0.00 0.00 0.00 78 1016.4
20260904161034 91 0 0.0 0.0 0.00 0.00 0.00 78 1016.4
20260904160533 90 0 0.0 0.0 0.00 0.00 0.00 76 1016.6
20260904160100 90 0 0.0 0.0 0.00 0.00 0.00 79 1016.6
20260904155535 92 0 0.0 0.0 0.00 0.00 0.00 77 1016.7
20260904155032 91 0 0.0 0.0 0.00 0.00 0.00 77 1016.7
20260904154553 91 0 0.0 0.0 0.00 0.00 0.00 78 1016.6
20260904154035 91 0 0.0 0.0 0.00 0.00 0.00 77 1016.6
20260904153532 91 0 0.0 0.0 0.00 0.00 0.00 76 1016.6
20260904153110 90 0 0.0 0.0 0.00 0.00 0.00 79 1016.6
20260904152534 90 0 0.0 0.0 0.00 0.00 0.00 79 1016.6
20260904152034 89 0 0.0 0.0 0.00 0.00 0.00 78 1016.6
20260904151606 90 0 0.0 0.0 0.00 0.00 0.00 78 1016.5
20260904151036 90 0 0.0 0.0 0.00 0.00 0.00 77 1016.6
20260904150535 89 0 0.0 0.0 0.00 0.00 0.00 81 1016.6
20260904150055 89 0 0.0 0.0 0.00 0.00 0.00 83 1016.6
20260904145535 89 0 0.0 0.0 0.00 0.00 0.00 80 1016.6
20260904145036 89 0 0.0 0.0 0.00 0.00 0.00 84 1016.7
20260904144553 88 0 0.0 0.0 0.00 0.00 0.00 83 1016.8
20260904144035 88 0 0.0 0.0 0.00 0.00 0.00 83 1016.7
20260904143532 88 0 0.0 0.0 0.00 0.00 0.00 84 1016.6
20260904143048 87 0 0.0 0.0 0.00 0.00 0.00 84 1016.7
20260904142534 87 0 0.0 0.0 0.00 0.00 0.00 84 1016.7
20260904142036 86 0 0.0 0.0 0.00 0.00 0.00 85 1016.7
20260904141558 86 0 0.0 0.0 0.00 0.00 0.00 86 1016.6
20260904141033 85 0 0.0 0.0 0.00 0.00 0.00 87 1016.6
20260904140533 85 0 0.0 0.0 0.00 0.00 0.00 87 1016.5
20260904140058 85 0 0.0 0.0 0.00 0.00 0.00 87 1016.5
20260904135534 85 0 0.0 0.0 0.00 0.00 0.00 86 1016.6
20260904135035 85 0 0.0 1.0 0.00 0.00 0.00 88 1016.6
20260904134554 85 0 0.0 1.0 0.00 0.00 0.00 85 1016.5
20260904134032 86 0 0.0 1.0 0.00 0.00 0.00 87 1016.5
20260904133532 85 0 0.0 0.0 0.00 0.00 0.00 87 1016.5
20260904133103 85 0 0.0 0.0 0.00 0.00 0.00 89 1016.5
20260904132532 84 0 0.0 0.0 0.00 0.00 0.00 89 1016.5
20260904132033 84 0 0.0 0.0 0.00 0.00 0.00 91 1016.6
20260904131553 83 0 0.0 0.0 0.00 0.00 0.00 92 1016.5
20260904131032 82 0 0.0 0.0 0.00 0.00 0.00 91 1016.5
20260904130532 82 0 0.0 0.0 0.00 0.00 0.00 93 1016.6
20260904130053 83 0 0.0 0.0 0.00 0.00 0.00 93 1016.6
20260904125532 82 0 0.0 0.0 0.00 0.00 0.00 93 1016.6
20260904125035 82 0 0.0 0.0 0.00 0.00 0.00 95 1016.5
20260904124547 81 0 0.0 0.0 0.00 0.00 0.00 96 1016.7
20260904124031 80 0 0.0 0.0 0.00 0.00 0.00 97 1016.5
20260904123533 80 0 0.0 0.0 0.00 0.00 0.00 97 1016.6
20260904123045 79 0 0.0 0.0 0.00 0.00 0.00 97 1016.6
20260904122532 79 0 0.0 0.0 0.00 0.00 0.00 97 1016.6
20260904122032 79 0 0.0 0.0 0.00 0.00 0.00 97 1016.6
20260904121553 79 0 0.0 0.0 0.00 0.00 0.00 97 1016.7
20260904121032 79 0 0.0 0.0 0.00 0.00 0.00 96 1016.6
20260904120532 79 0 0.0 0.0 0.00 0.00 0.00 96 1016.5
20260904120107 79 0 0.0 0.0 0.00 0.00 0.00 96 1016.5
20260904115532 79 0 0.0 0.0 0.00 0.00 0.00 97 1016.5
20260904115032 79 0 0.0 0.0 0.00 0.00 0.00 97 1016.5
20260904114547 78 0 0.0 0.0 0.00 0.00 0.00 96 1016.5
20260904114030 78 0 0.0 0.0 0.00 0.00 0.00 96 1016.6
20260904113532 78 0 0.0 0.0 0.00 0.00 0.00 96 1016.5
20260904113045 78 0 0.0 0.0 0.00 0.00 0.00 96 1016.6
20260904112532 78 0 0.0 0.0 0.00 0.00 0.00 96 1016.6
20260904112032 78 0 0.0 0.0 0.00 0.00 0.00 96 1016.6
20260904111554 78 0 0.0 0.0 0.00 0.00 0.00 96 1016.5
20260904111029 78 0 0.0 0.0 0.00 0.00 0.00 96 1016.5
20260904110550 78 0 0.0 0.0 0.00 0.00 0.00 96 1016.4
20260904110054 78 0 0.0 0.0 0.00 0.00 0.00 96 1016.4
20260904105536 78 0 0.0 0.0 0.00 0.00 0.00 96 1016.3
20260904105033 78 0 0.0 0.0 0.00 0.00 0.00 96 1016.2
20260904104549 78 0 0.0 0.0 0.00 0.00 0.00 96 1016.3
20260904104034 78 0 0.0 0.0 0.00 0.00 0.00 96 1016.1
20260904103532 78 0 0.0 0.0 0.00 0.00 0.00 96 1016.0
20260904103101 78 0 0.0 0.0 0.00 0.00 0.00 96 1015.9
20260904102533 78 0 0.0 0.0 0.00 0.00 0.00 96 1016.0
20260904102029 78 0 0.0 0.0 0.00 0.00 0.00 96 1016.0
20260904101555 78 0 0.0 0.0 0.00 0.00 0.00 96 1016.0
20260904101031 78 0 0.0 0.0 0.00 0.00 0.00 96 1016.0
20260904100532 78 0 0.0 0.0 0.00 0.00 0.00 96 1015.9
20260904100053 78 0 0.0 0.0 0.00 0.00 0.00 96 1015.9
20260904095534 78 0 0.0 0.0 0.00 0.00 0.00 96 1015.8
20260904095034 78 0 0.0 0.0 0.00 0.00 0.00 96 1015.9
20260904094548 78 0 0.0 0.0 0.00 0.00 0.00 96 1015.9
20260904094035 79 0 0.0 0.0 0.00 0.00 0.00 96 1015.9
20260904093535 78 0 0.0 0.0 0.00 0.00 0.00 96 1016.0
20260904093106 79 0 0.0 0.0 0.00 0.00 0.00 96 1015.9
20260904092532 79 0 0.0 0.0 0.00 0.00 0.00 96 1016.0
20260904092036 79 0 0.0 0.0 0.00 0.00 0.00 96 1016.0
20260904091551 79 0 0.0 0.0 0.00 0.00 0.00 96 1016.1
20260904091034 79 0 0.0 0.0 0.00 0.00 0.00 96 1016.0
20260904090533 78 0 0.0 0.0 0.00 0.00 0.00 96 1016.0
20260904090057 78 0 0.0 0.0 0.00 0.00 0.00 96 1015.9
20260904085533 78 0 0.0 0.0 0.00 0.00 0.00 96 1016.0
20260904085033 78 0 0.0 0.0 0.00 0.00 0.00 96 1016.2
20260904084557 78 0 0.0 0.0 0.00 0.00 0.00 96 1016.1
20260904084030 78 0 0.0 0.0 0.00 0.00 0.00 96 1016.1
20260904083535 78 0 0.0 0.0 0.00 0.00 0.00 96 1016.0
20260904083052 78 0 0.0 0.0 0.00 0.00 0.00 96 1016.0
20260904082534 78 0 0.0 0.0 0.00 0.00 0.00 96 1016.2
20260904082031 78 0 0.0 0.0 0.00 0.00 0.00 96 1016.2
20260904081545 79 0 0.0 0.0 0.00 0.00 0.00 96 1016.2
20260904081033 79 0 0.0 0.0 0.00 0.00 0.00 96 1016.1
20260904080532 78 0 0.0 0.0 0.00 0.00 0.00 96 1016.1
20260904080057 79 0 0.0 0.0 0.00 0.00 0.00 96 1016.0
20260904075533 79 0 0.0 0.0 0.00 0.00 0.00 96 1016.1
20260904075033 79 0 0.0 0.0 0.00 0.00 0.00 96 1016.0
20260904074554 79 0 0.0 0.0 0.00 0.00 0.00 96 1016.0
20260904074034 79 0 0.0 0.0 0.00 0.00 0.00 96 1016.0
20260904073532 79 0 0.0 0.0 0.00 0.00 0.00 96 1016.0
20260904073056 79 0 0.0 0.0 0.00 0.00 0.00 96 1016.1
20260904072532 79 0 0.0 0.0 0.00 0.00 0.00 96 1016.2
20260904072031 79 0 0.0 0.0 0.00 0.00 0.00 96 1016.2
20260904071554 79 0 0.0 0.0 0.00 0.00 0.00 96 1016.1
20260904071032 79 0 0.0 0.0 0.00 0.00 0.00 96 1016.1
20260904070532 79 0 0.0 0.0 0.00 0.00 0.00 96 1016.1
20260904070047 79 0 0.0 0.0 0.00 0.00 0.00 96 1016.1
20260904065531 79 0 0.0 0.0 0.00 0.00 0.00 96 1016.1
20260904065031 79 0 0.0 0.0 0.00 0.00 0.00 96 1016.1
20260904064547 79 0 0.0 0.0 0.00 0.00 0.00 96 1016.2
20260904064032 79 0 0.0 0.0 0.00 0.00 0.00 96 1016.1
20260904063532 79 0 0.0 0.0 0.00 0.00 0.00 96 1016.2
20260904063054 79 0 0.0 0.0 0.00 0.00 0.00 96 1016.3
20260904062533 79 0 0.0 0.0 0.00 0.00 0.00 96 1016.3
20260904062031 79 0 0.0 0.0 0.00 0.00 0.00 96 1016.4
20260904061552 79 0 0.0 0.0 0.00 0.00 0.00 96 1016.3
20260904061034 79 0 0.0 0.0 0.00 0.00 0.00 96 1016.4
20260904060532 79 0 0.0 0.0 0.00 0.00 0.00 96 1016.4
20260904060045 79 0 0.0 0.0 0.00 0.00 0.00 96 1016.4
20260904055532 79 0 0.0 0.0 0.00 0.00 0.00 96 1016.5
20260904055032 79 0 0.0 0.0 0.00 0.00 0.00 96 1016.4
20260904054600 79 0 0.0 0.0 0.00 0.00 0.00 95 1016.6
20260904054033 79 0 0.0 0.0 0.00 0.00 0.00 95 1016.7
20260904053533 79 0 0.0 0.0 0.00 0.00 0.00 95 1016.7
20260904053130 79 0 0.0 0.0 0.00 0.00 0.00 95 1016.7
20260904052532 79 0 0.0 0.0 0.00 0.00 0.00 95 1016.7
20260904052036 79 0 0.0 0.0 0.00 0.00 0.00 95 1016.7
20260904051553 79 0 0.0 1.0 0.00 0.00 0.00 95 1016.8
20260904051032 79 0 0.0 1.0 0.00 0.00 0.00 95 1016.9
20260904050533 79 0 0.0 0.0 0.00 0.00 0.00 95 1017.0
20260904050101 79 0 0.0 0.0 0.00 0.00 0.00 95 1016.9
20260904045534 79 0 0.0 0.0 0.00 0.00 0.00 95 1017.1
20260904045033 79 0 0.0 0.0 0.00 0.00 0.00 95 1017.1
20260904044557 79 0 0.0 0.0 0.00 0.00 0.00 95 1017.2
20260904044032 79 0 0.0 0.0 0.00 0.00 0.00 95 1017.2
20260904043532 79 0 0.0 0.0 0.00 0.00 0.00 95 1017.2
20260904043054 79 0 0.0 0.0 0.00 0.00 0.00 95 1017.2
20260904042534 79 0 0.0 0.0 0.00 0.00 0.00 95 1017.2
20260904042032 79 0 0.0 0.0 0.00 0.00 0.00 95 1017.3
20260904041602 79 0 0.0 0.0 0.00 0.00 0.00 95 1017.2
20260904041033 79 0 0.0 0.0 0.00 0.00 0.00 94 1017.4
20260904040533 79 0 0.0 0.0 0.00 0.00 0.00 94 1017.3
20260904040047 80 0 0.0 0.0 0.00 0.00 0.00 94 1017.3
20260904035533 80 0 0.0 0.0 0.00 0.00 0.00 94 1017.3
20260904035032 80 0 0.0 0.0 0.00 0.00 0.00 94 1017.4
20260904034559 80 0 0.0 0.0 0.00 0.00 0.00 94 1017.6
20260904034032 80 0 0.0 0.0 0.00 0.00 0.00 94 1017.5
20260904033533 80 0 0.0 0.0 0.00 0.00 0.00 94 1017.6
20260904033103 80 0 0.0 0.0 0.00 0.00 0.00 94 1017.5
20260904032532 80 0 0.0 0.0 0.00 0.00 0.00 94 1017.6
20260904032034 80 0 0.0 0.0 0.00 0.00 0.00 94 1017.6
20260904031551 80 0 0.0 0.0 0.00 0.00 0.00 94 1017.6
20260904031034 80 0 0.0 0.0 0.00 0.00 0.00 94 1017.6
20260904030533 80 0 0.0 0.0 0.00 0.00 0.00 94 1017.6
20260904030049 80 0 0.0 0.0 0.00 0.00 0.00 94 1017.5
20260904025533 80 0 0.0 0.0 0.00 0.00 0.00 94 1017.5
20260904025032 80 0 0.0 0.0 0.00 0.00 0.00 94 1017.4
20260904024557 80 0 0.0 0.0 0.00 0.00 0.00 93 1017.5
20260904024033 80 0 0.0 0.0 0.00 0.00 0.00 93 1017.4
20260904023534 80 0 0.0 0.0 0.00 0.00 0.00 93 1017.4
20260904023055 80 0 0.0 0.0 0.00 0.00 0.00 93 1017.4